| time (UTC) | temp F | wind direction | speed MPH | gust MPH | rain 1hr in | rain 24hr in | rain mn in | humidity % | barometer mb |
| 20260509180027 | 72 | 64 | 0.0 | 2.0 | 0.00 | 0.00 | 0.00 | 40 | 1020.9 |
| 20260509174521 | 71 | 105 | 1.0 | 5.0 | 0.00 | 0.00 | 0.00 | 40 | 1021.0 |
| 20260509173026 | 70 | 107 | 0.0 | 7.0 | 0.00 | 0.00 | 0.00 | 41 | 1021.1 |
| 20260509171533 | 69 | 258 | 0.0 | 2.0 | 0.00 | 0.00 | 0.00 | 45 | 1021.2 |
| 20260509170024 | 67 | 178 | 1.0 | 6.0 | 0.00 | 0.00 | 0.00 | 45 | 1021.4 |
| 20260509164525 | 66 | 144 | 2.0 | 4.0 | 0.00 | 0.00 | 0.00 | 46 | 1021.3 |
| 20260509161531 | 64 | 182 | 3.0 | 7.0 | 0.00 | 0.00 | 0.00 | 51 | 1021.6 |
| 20260509160008 | 63 | 184 | 3.0 | 9.0 | 0.00 | 0.00 | 0.00 | 53 | 1021.6 |
| 20260509154510 | 62 | 216 | 3.0 | 10.0 | 0.00 | 0.00 | 0.00 | 56 | 1021.7 |
| 20260509153010 | 61 | 215 | 2.0 | 7.0 | 0.00 | 0.00 | 0.00 | 58 | 1021.6 |
| 20260509151503 | 59 | 80 | 1.0 | 4.0 | 0.00 | 0.00 | 0.00 | 60 | 1021.7 |
| 20260509150010 | 58 | 307 | 0.0 | 6.0 | 0.00 | 0.00 | 0.00 | 62 | 1021.4 |
| 20260509144518 | 57 | 153 | 0.0 | 8.0 | 0.00 | 0.00 | 0.00 | 66 | 1021.3 |
| 20260509143010 | 56 | 149 | 0.0 | 6.0 | 0.00 | 0.00 | 0.00 | 68 | 1021.3 |
| 20260509141507 | 55 | 188 | 1.0 | 6.0 | 0.00 | 0.00 | 0.00 | 69 | 1021.2 |
| 20260509140005 | 54 | 145 | 2.0 | 6.0 | 0.00 | 0.00 | 0.00 | 70 | 1021.1 |
| 20260509134504 | 53 | 155 | 2.0 | 8.0 | 0.00 | 0.00 | 0.00 | 72 | 1020.9 |
| 20260509133011 | 52 | 190 | 2.0 | 6.0 | 0.00 | 0.00 | 0.00 | 74 | 1020.8 |
| 20260509131515 | 51 | 178 | 2.0 | 7.0 | 0.00 | 0.00 | 0.00 | 74 | 1020.7 |
| 20260509130005 | 51 | 114 | 3.0 | 7.0 | 0.00 | 0.00 | 0.00 | 73 | 1020.6 |
| 20260509124507 | 52 | 153 | 3.0 | 7.0 | 0.00 | 0.00 | 0.00 | 73 | 1020.5 |
| 20260509123010 | 52 | 164 | 3.0 | 10.0 | 0.00 | 0.00 | 0.00 | 73 | 1020.5 |
| 20260509121521 | 52 | 182 | 2.0 | 8.0 | 0.00 | 0.00 | 0.00 | 74 | 1020.4 |
| 20260509120017 | 52 | 200 | 3.0 | 7.0 | 0.00 | 0.00 | 0.00 | 71 | 1020.4 |
| 20260509114519 | 52 | 171 | 2.0 | 8.0 | 0.00 | 0.00 | 0.00 | 70 | 1020.3 |
| 20260509113010 | 53 | 136 | 4.0 | 9.0 | 0.00 | 0.00 | 0.00 | 70 | 1020.3 |
| 20260509111513 | 52 | 132 | 3.0 | 9.0 | 0.00 | 0.00 | 0.00 | 71 | 1020.3 |
| 20260509110014 | 52 | 209 | 4.0 | 8.0 | 0.00 | 0.00 | 0.00 | 71 | 1020.3 |
| 20260509104508 | 52 | 171 | 2.0 | 7.0 | 0.00 | 0.00 | 0.00 | 70 | 1020.3 |
| 20260509103012 | 52 | 159 | 4.0 | 10.0 | 0.00 | 0.00 | 0.00 | 71 | 1020.2 |
| 20260509101514 | 52 | 181 | 2.0 | 10.0 | 0.00 | 0.00 | 0.00 | 70 | 1020.0 |
| 20260509100016 | 52 | 153 | 3.0 | 9.0 | 0.00 | 0.00 | 0.00 | 69 | 1020.2 |
| 20260509094524 | 53 | 139 | 0.0 | 6.0 | 0.00 | 0.00 | 0.00 | 66 | 1020.0 |
| 20260509093015 | 55 | 165 | 3.0 | 7.0 | 0.00 | 0.00 | 0.00 | 62 | 1020.1 |
| 20260509091514 | 55 | 92 | 1.0 | 3.0 | 0.00 | 0.00 | 0.00 | 60 | 1019.9 |
| 20260509090044 | 55 | 189 | 4.0 | 10.0 | 0.00 | 0.00 | 0.00 | 62 | 1019.8 |
| 20260509084527 | 56 | 230 | 1.0 | 7.0 | 0.00 | 0.00 | 0.00 | 57 | 1019.6 |
| 20260509083040 | 56 | 155 | 3.0 | 11.0 | 0.00 | 0.00 | 0.00 | 59 | 1019.6 |
| 20260509081528 | 56 | 241 | 1.0 | 5.0 | 0.00 | 0.00 | 0.00 | 57 | 1019.3 |
| 20260509080028 | 55 | 180 | 5.0 | 11.0 | 0.00 | 0.00 | 0.00 | 60 | 1019.3 |
| 20260509074533 | 56 | 184 | 1.0 | 9.0 | 0.00 | 0.00 | 0.00 | 56 | 1019.3 |
| 20260509073025 | 56 | 163 | 6.0 | 10.0 | 0.00 | 0.00 | 0.00 | 55 | 1019.4 |
| 20260509071526 | 58 | 197 | 1.0 | 5.0 | 0.00 | 0.00 | 0.00 | 51 | 1019.1 |
| 20260509070012 | 58 | 204 | 5.0 | 10.0 | 0.00 | 0.00 | 0.00 | 51 | 1018.8 |
| 20260509064506 | 59 | 125 | 4.0 | 10.0 | 0.00 | 0.00 | 0.00 | 46 | 1018.9 |
| 20260509063021 | 58 | 146 | 3.0 | 9.0 | 0.00 | 0.00 | 0.00 | 44 | 1018.8 |
| 20260509061512 | 59 | 180 | 2.0 | 5.0 | 0.00 | 0.00 | 0.00 | 43 | 1018.8 |
| 20260509060015 | 60 | 200 | 1.0 | 4.0 | 0.00 | 0.00 | 0.00 | 41 | 1018.5 |
| 20260509054518 | 60 | 209 | 0.0 | 5.0 | 0.00 | 0.00 | 0.00 | 41 | 1018.4 |
| 20260509053024 | 60 | 208 | 0.0 | 4.0 | 0.00 | 0.00 | 0.00 | 40 | 1018.3 |
| 20260509051513 | 61 | 181 | 0.0 | 4.0 | 0.00 | 0.00 | 0.00 | 39 | 1018.1 |
| 20260509050033 | 61 | 157 | 2.0 | 7.0 | 0.00 | 0.00 | 0.00 | 40 | 1018.0 |
| 20260509044517 | 61 | 241 | 0.0 | 0.0 | 0.00 | 0.00 | 0.00 | 40 | 1017.7 |
| 20260509043032 | 62 | 161 | 0.0 | 3.0 | 0.00 | 0.00 | 0.00 | 40 | 1017.7 |
| 20260509041522 | 63 | 213 | 0.0 | 5.0 | 0.00 | 0.00 | 0.00 | 39 | 1017.5 |
| 20260509034513 | 66 | 195 | 2.0 | 4.0 | 0.00 | 0.00 | 0.00 | 33 | 1016.8 |
| 20260509033029 | 68 | 166 | 0.0 | 4.0 | 0.00 | 0.00 | 0.00 | 25 | 1016.7 |
| 20260509031527 | 69 | 178 | 0.0 | 2.0 | 0.00 | 0.00 | 0.00 | 24 | 1016.3 |
| 20260509030028 | 70 | 24 | 0.0 | 2.0 | 0.00 | 0.00 | 0.00 | 22 | 1016.0 |
| 20260509024518 | 71 | 305 | 0.0 | 3.0 | 0.00 | 0.00 | 0.00 | 23 | 1015.8 |
| 20260509023024 | 72 | 331 | 0.0 | 2.0 | 0.00 | 0.00 | 0.00 | 25 | 1015.6 |
| 20260509021519 | 72 | 316 | 0.0 | 7.0 | 0.00 | 0.00 | 0.00 | 30 | 1015.4 |
| 20260509020022 | 72 | 332 | 0.0 | 10.0 | 0.00 | 0.00 | 0.00 | 32 | 1015.3 |
| 20260509014527 | 73 | 171 | 2.0 | 11.0 | 0.00 | 0.00 | 0.00 | 30 | 1014.8 |
| 20260509013028 | 74 | 182 | 3.0 | 15.0 | 0.00 | 0.00 | 0.00 | 29 | 1014.7 |
| 20260509011524 | 74 | 213 | 4.0 | 13.0 | 0.00 | 0.00 | 0.00 | 28 | 1014.7 |
| 20260509010013 | 75 | 211 | 4.0 | 17.0 | 0.00 | 0.00 | 0.00 | 27 | 1014.7 |
| 20260509004505 | 76 | 352 | 4.0 | 15.0 | 0.00 | 0.00 | 0.00 | 26 | 1014.5 |
| 20260509003004 | 76 | 199 | 3.0 | 9.0 | 0.00 | 0.00 | 0.00 | 24 | 1014.4 |
| 20260509001504 | 76 | 169 | 7.0 | 16.0 | 0.00 | 0.00 | 0.00 | 24 | 1014.3 |
| 20260509000006 | 76 | 195 | 9.0 | 21.0 | 0.00 | 0.00 | 0.00 | 24 | 1014.3 |
| 20260508234507 | 76 | 164 | 7.0 | 19.0 | 0.00 | 0.00 | 0.00 | 24 | 1014.3 |
| 20260508231508 | 76 | 191 | 9.0 | 16.0 | 0.00 | 0.00 | 0.00 | 21 | 1014.6 |
| 20260508230005 | 77 | 167 | 4.0 | 11.0 | 0.00 | 0.00 | 0.00 | 22 | 1014.7 |
| 20260508224520 | 77 | 134 | 2.0 | 11.0 | 0.00 | 0.00 | 0.00 | 23 | 1014.7 |
| 20260508223011 | 76 | 186 | 2.0 | 11.0 | 0.00 | 0.00 | 0.00 | 22 | 1014.7 |
| 20260508221516 | 76 | 239 | 2.0 | 10.0 | 0.00 | 0.00 | 0.00 | 24 | 1014.8 |
| 20260508220009 | 76 | 189 | 6.0 | 17.0 | 0.00 | 0.00 | 0.00 | 22 | 1014.7 |
| 20260508213007 | 75 | 220 | 4.0 | 18.0 | 0.00 | 0.00 | 0.00 | 24 | 1015.0 |
| 20260508211523 | 75 | 350 | 4.0 | 12.0 | 0.00 | 0.00 | 0.00 | 24 | 1015.0 |
| 20260508210017 | 74 | 333 | 5.0 | 14.0 | 0.00 | 0.00 | 0.00 | 25 | 1015.0 |
| 20260508204522 | 73 | 261 | 3.0 | 14.0 | 0.00 | 0.00 | 0.00 | 29 | 1015.1 |
| 20260508203007 | 71 | 303 | 2.0 | 19.0 | 0.00 | 0.00 | 0.00 | 28 | 1015.0 |
| 20260508201515 | 71 | 178 | 4.0 | 12.0 | 0.00 | 0.00 | 0.00 | 26 | 1015.0 |
| 20260508200017 | 72 | 18 | 5.0 | 14.0 | 0.00 | 0.00 | 0.00 | 25 | 1015.1 |
| 20260508194520 | 73 | 65 | 6.0 | 16.0 | 0.00 | 0.00 | 0.00 | 24 | 1015.0 |
| 20260508193025 | 73 | 149 | 3.0 | 15.0 | 0.00 | 0.00 | 0.00 | 28 | 1014.9 |
| 20260508191508 | 72 | 149 | 1.0 | 13.0 | 0.00 | 0.00 | 0.00 | 29 | 1014.9 |
| 20260508190017 | 72 | 159 | 3.0 | 11.0 | 0.00 | 0.00 | 0.00 | 31 | 1015.1 |
| 20260508184513 | 72 | 205 | 2.0 | 8.0 | 0.00 | 0.00 | 0.00 | 35 | 1015.3 |
| 20260508183020 | 70 | 123 | 5.0 | 14.0 | 0.00 | 0.00 | 0.00 | 31 | 1015.4 |
| 20260508181524 | 70 | 192 | 6.0 | 12.0 | 0.00 | 0.00 | 0.00 | 35 | 1015.4 |